[[{"header":{"parameterUnit":"m.s-1","parameterCategory":1,"la1":30.2991,"la2":30.254,"lo1":-89.0895,"lo2":-89.0444,"dy":0.0017,"dx":0.0017,"nx":28,"ny":28,"refTime":"2025-06-10T21:00:00:Z","depth":0,"parameterNumber":2,"parameterNumberName":"U-component_of_WINDS"},"data":[0,0,0,0,0,0,0,0,0,0,0,0,0,0,0,0,0,0,0,0,0,0,0,0,0,0,0,0,0,0,0,0,0,0,0,0,0,0,0,0,0,0,0,0,0,0,0,0,0,0,0,0,0,0,0,0,0,0,2.1048,2.1046,0,2.0836,2.0833,2.0831,2.0716,2.0715,2.0715,2.0715,2.0506,2.0501,2.0495,0,0,0,0,0,0,0,0,0,0,0,0,0,2.1368,2.1363,2.1048,2.1046,2.1043,2.0836,2.0833,2.083,2.0716,2.0715,2.0715,2.0715,2.0507,2.0501,2.0495,0,0,0,0,0,0,0,0,0,0,0,0,0,2.12,2.1361,2.1049,2.0961,2.0951,2.0837,2.0833,2.083,2.0716,2.0715,2.0715,2.0715,2.051,2.0502,2.0494,2.0454,0,0,2.047,2.0466,0,0,0,0,0,0,0,0,2.121,2.1188,2.0976,2.0966,2.0955,2.0802,2.0869,2.0704,2.0716,2.0805,2.0715,2.0714,2.0605,2.0589,2.0551,2.0444,2.0435,2.0469,2.0464,2.0461,2.0459,0,0,0,0,0,0,0,2.1222,2.1197,2.0964,2.0973,2.096,2.0936,2.0912,2.0837,2.0711,2.0797,2.0789,2.0765,2.0599,2.0559,2.0545,2.0432,2.0469,2.0462,2.0457,2.0454,2.029,2.029,0,0,0,0,0,0,2.1246,2.1207,2.0971,2.0958,2.1084,2.0931,2.0903,2.0852,2.0711,2.0689,2.0765,2.076,2.0572,2.0554,2.0537,2.0484,2.0461,2.0453,2.0449,2.0289,2.029,2.029,0,0,0,0,0,0,2.1253,2.1226,2.098,2.108,2.1047,2.0926,2.0868,2.0848,2.0806,2.0686,2.0664,2.0746,2.0571,2.0548,2.0476,2.0475,2.045,2.0443,2.0289,2.0289,2.029,2.0376,0,0,0,0,0,0,2.1263,2.1229,2.1209,2.108,2.1042,2.0919,2.0868,2.0844,2.0792,2.0783,2.0663,2.0642,2.0569,2.0489,2.0469,2.0464,2.0436,2.0288,2.0289,2.029,2.0373,2.038,2.0386,0,0,0,0,0,2.1274,2.1242,2.1208,2.118,2.1014,2.0918,2.0897,2.0811,2.0792,2.0774,2.0698,2.0646,2.0479,2.0483,2.0459,2.0452,2.0288,2.0289,2.029,2.037,2.0378,2.0385,0,0,0,0,0,0,2.1374,2.1223,2.1184,2.1108,2.1027,2.0899,2.0872,2.0822,2.0746,2.0741,2.0641,2.0615,2.0554,2.0496,2.0502,2.0409,2.0379,2.0375,2.0448,2.0455,2.0461,2.0476,2.043,0,0,0,0,0,2.1387,2.1319,2.1192,2.1138,2.1099,2.0994,2.0949,2.089,2.0803,2.0769,2.0687,2.0608,2.0538,2.0494,2.0422,2.0366,2.034,2.035,2.0356,2.0362,2.0359,2.0331,2.0334,2.0293,2.0293,2.0293,0,0,2.1413,2.1323,2.1285,2.1156,2.1086,2.1022,2.0965,2.0898,2.0851,2.0759,2.0686,2.0625,2.053,2.0467,2.0435,2.0417,2.0366,2.0363,2.0369,2.0362,2.0332,2.0336,2.034,2.0293,2.0293,2.0293,0,0,2.1428,2.1351,2.1299,2.1231,2.1126,2.1058,2.1046,2.0927,2.0882,2.0807,2.0739,2.0685,2.0565,2.0501,2.0453,2.0454,2.0405,2.0434,2.0466,2.0439,2.0443,2.0445,2.0448,2.045,2.0432,2.0433,2.0433,0,2.1474,2.137,2.128,2.1218,2.1166,2.108,2.103,2.097,2.0849,2.0817,2.0798,2.065,2.0579,2.0503,2.0504,2.0467,2.0454,2.0446,2.0449,2.045,2.0452,2.0453,2.0454,2.0437,2.0436,2.0436,2.0436,0,2.1435,2.1366,2.1337,2.1221,2.1166,2.1111,2.1017,2.0973,2.0922,2.0857,2.0786,2.07,2.0612,2.0591,2.054,2.0509,2.0501,2.0467,2.0434,2.0461,2.0461,2.0461,2.0443,2.0441,2.044,2.0439,0,0,2.15,2.1339,2.133,2.1279,2.1161,2.1107,2.1053,2.0965,2.0932,2.0854,2.0807,2.0712,2.0682,2.0628,2.0571,2.0547,2.0558,2.0517,2.0513,2.0529,2.0524,2.055,2.0551,2.0526,2.0526,2.0526,2.0532,0,2.1498,2.139,2.131,2.1235,2.1173,2.1095,2.1048,2.0974,2.0914,2.0857,2.0792,2.0727,2.069,2.0658,2.0631,2.0562,2.0556,2.0561,2.0486,2.0484,2.0511,2.0551,2.0576,2.0586,2.0531,2.0531,2.0531,0,2.1479,2.1404,2.1322,2.1216,2.1187,2.1145,2.1062,2.1007,2.0925,2.0884,2.0827,2.0769,2.0714,2.0689,2.0613,2.0619,2.0585,2.0548,2.0546,2.0535,2.0508,2.0542,2.0586,2.0589,2.053,2.053,2.053,0,2.1538,2.1416,2.1352,2.1311,2.1185,2.1159,2.1106,2.1022,2.0977,2.0907,2.0878,2.0804,2.0763,2.0709,2.0635,2.0623,2.0569,2.0537,2.0536,2.0538,2.0526,2.0528,2.0567,2.0505,2.0505,2.0505,2.0505,0,2.1543,2.1497,2.1377,2.1337,2.1286,2.1199,2.1152,2.1093,2.1021,2.0973,2.0903,2.0861,2.0766,2.0714,2.0656,2.0605,2.0587,2.0555,2.054,2.0561,2.0565,2.0536,2.0534,2.0505,2.0505,2.0505,2.0505,0,2.1597,2.1515,2.144,2.133,2.1301,2.1268,2.1175,2.1138,2.1077,2.1018,2.1,2.0905,2.0841,2.0762,2.0673,2.0635,2.059,2.0567,2.0617,2.0608,2.0613,2.0614,2.0634,2.0634,2.0573,2.0574,2.0574,0,2.1605,2.1568,2.1454,2.1416,2.1365,2.1305,2.1259,2.1176,2.1132,2.104,2.1015,2.0945,2.0884,2.0787,2.0713,2.0646,2.0622,2.0634,2.0611,2.0635,2.0624,2.0627,2.0625,2.0639,2.064,2.0641,2.0642,0,2.163,2.1593,2.1527,2.1451,2.1399,2.1335,2.1268,2.1242,2.1147,2.1103,2.1035,2.0989,2.0899,2.0833,2.0758,2.0709,2.0661,2.065,2.0647,2.0667,2.0698,2.0683,2.0633,2.0649,2.0649,2.0648,2.0648,2.0647,2.1661,2.1626,2.1542,2.1475,2.1417,2.1358,2.1318,2.1254,2.1196,2.1115,2.1071,2.1007,2.0933,2.0827,2.0781,2.0733,2.0715,2.0709,2.0708,2.0708,2.0716,2.0707,2.0719,2.0718,2.0718,2.0718,2.0718,0,2.1683,2.1627,2.1566,2.1475,2.1425,2.1384,2.1311,2.1272,2.1215,2.1149,2.1092,2.1019,2.0957,2.088,2.0814,2.079,2.0768,2.0776,2.0776,2.0767,2.0734,2.0744,2.0796,2.0796,2.0796,2.0796,2.0796,2.0796,2.1688,2.1628,2.1583,2.1497,2.1442,2.1376,2.1339,2.1287,2.1234,2.1155,2.1102,2.1053,2.0985,2.0914,2.0857,2.0837,2.0816,2.0832,2.0805,2.0775,2.0768,2.0762,2.0771,2.0828,2.0828,2.0842,2.0842,2.0843]},{"header":{"parameterUnit":"m.s-1","parameterCategory":1,"la1":30.2991,"la2":30.254,"lo1":-89.0895,"lo2":-89.0444,"dy":0.0017,"dx":0.0017,"nx":28,"ny":28,"refTime":"2025-06-10T21:00:00:Z","depth":0,"parameterNumber":3,"parameterNumberName":"V-component_of_WINDS"},"data":[0,0,0,0,0,0,0,0,0,0,0,0,0,0,0,0,0,0,0,0,0,0,0,0,0,0,0,0,0,0,0,0,0,0,0,0,0,0,0,0,0,0,0,0,0,0,0,0,0,0,0,0,0,0,0,0,0,0,3.4976,3.498,0,3.5433,3.5438,3.5443,3.56,3.5598,3.5596,3.5594,3.6039,3.6052,3.6066,0,0,0,0,0,0,0,0,0,0,0,0,0,3.4212,3.4225,3.4975,3.4981,3.4987,3.5432,3.5439,3.5445,3.56,3.5598,3.5596,3.5594,3.6035,3.6051,3.6067,0,0,0,0,0,0,0,0,0,0,0,0,0,3.4593,3.4229,3.4974,3.5118,3.5136,3.5431,3.5439,3.5446,3.56,3.5598,3.5595,3.5593,3.603,3.6049,3.6069,3.6247,0,0,3.6131,3.614,0,0,0,0,0,0,0,0,3.4571,3.4621,3.5091,3.5109,3.5129,3.5457,3.5333,3.5714,3.5601,3.5423,3.5594,3.5591,3.5846,3.5881,3.5972,3.6268,3.6287,3.6133,3.6145,3.6154,3.6159,0,0,0,0,0,0,0,3.4545,3.4602,3.5156,3.5098,3.5121,3.5152,3.5204,3.5406,3.5643,3.5438,3.5451,3.5504,3.5856,3.5952,3.5984,3.6293,3.6132,3.615,3.6163,3.6171,3.6757,3.676,0,0,0,0,0,0,3.4497,3.4579,3.5141,3.5169,3.4839,3.5168,3.5226,3.5354,3.5642,3.5683,3.5506,3.551,3.5919,3.596,3.6,3.623,3.6154,3.6173,3.6184,3.6754,3.6758,3.6762,0,0,0,0,0,0,3.448,3.4546,3.5123,3.4878,3.4954,3.5185,3.5327,3.5364,3.5462,3.5693,3.5734,3.5563,3.5919,3.5971,3.6186,3.6247,3.6182,3.62,3.675,3.6755,3.676,3.6687,0,0,0,0,0,0,3.4458,3.4539,3.4615,3.4879,3.4967,3.5308,3.5331,3.5375,3.5499,3.5508,3.5757,3.5795,3.5921,3.6155,3.6206,3.6274,3.6216,3.6745,3.6752,3.6758,3.6685,3.6689,3.6693,0,0,0,0,0,3.443,3.4571,3.4618,3.4685,3.5067,3.5312,3.5361,3.5509,3.5503,3.5578,3.5726,3.5788,3.6231,3.6176,3.6235,3.6309,3.6742,3.675,3.6758,3.6684,3.6689,3.6693,0,0,0,0,0,0,3.4299,3.4608,3.4664,3.4896,3.5077,3.5338,3.5437,3.5509,3.569,3.569,3.5858,3.5912,3.6114,3.6232,3.6165,3.6495,3.6489,3.6509,3.6413,3.6419,3.6423,3.6391,3.6233,0,0,0,0,0,3.4298,3.4479,3.4736,3.4914,3.5004,3.5204,3.5316,3.5415,3.5606,3.5681,3.5846,3.6022,3.6202,3.6316,3.6494,3.6701,3.6757,3.6781,3.6784,3.6786,3.6802,3.6921,3.6935,3.6787,3.6787,3.6787,0,0,3.4296,3.4487,3.459,3.4893,3.5046,3.5223,3.5267,3.5452,3.5583,3.5707,3.5924,3.6049,3.6256,3.6469,3.6571,3.6573,3.6855,3.6796,3.6796,3.6812,3.693,3.6944,3.6956,3.6792,3.6791,3.6791,0,0,3.4385,3.4548,3.4718,3.4871,3.5104,3.5237,3.5276,3.5527,3.5618,3.5839,3.5936,3.6088,3.6394,3.654,3.6653,3.6795,3.6858,3.6847,3.6868,3.6981,3.6993,3.7004,3.7056,3.7073,3.6861,3.6861,3.6861,0,3.4351,3.4631,3.4792,3.4976,3.5105,3.5232,3.5401,3.5538,3.5813,3.5896,3.5896,3.6285,3.6433,3.6682,3.6717,3.6804,3.6852,3.6822,3.698,3.6992,3.7005,3.7057,3.7075,3.6859,3.6859,3.6859,3.6859,0,3.4578,3.4769,3.4876,3.515,3.529,3.5463,3.5645,3.5765,3.585,3.598,3.6201,3.6384,3.6602,3.6667,3.6748,3.6927,3.6922,3.6948,3.6946,3.7014,3.7065,3.7086,3.6855,3.6856,3.6857,3.6857,0,0,3.46,3.4963,3.4999,3.5126,3.5391,3.5538,3.5713,3.5936,3.6036,3.6219,3.6369,3.6625,3.6653,3.6781,3.6879,3.6978,3.7081,3.6993,3.7,3.7005,3.7289,3.727,3.7291,3.7122,3.7127,3.713,3.7272,0,3.4725,3.5059,3.5209,3.5471,3.5648,3.577,3.5923,3.6098,3.6223,3.6385,3.6518,3.6699,3.672,3.6799,3.6902,3.7046,3.714,3.7037,3.726,3.7266,3.7209,3.7318,3.7299,3.7424,3.7293,3.7297,3.7299,0,3.4918,3.5113,3.5395,3.5642,3.5721,3.5858,3.6073,3.6228,3.6426,3.6509,3.6653,3.6748,3.6931,3.6913,3.7166,3.7093,3.7191,3.7274,3.7283,3.7312,3.7289,3.7351,3.7468,3.7487,3.7332,3.7329,3.7327,0,3.4909,3.5239,3.5453,3.5556,3.5848,3.5941,3.6065,3.6262,3.6385,3.6569,3.665,3.6848,3.6957,3.7106,3.7249,3.7223,3.7487,3.7481,3.7558,3.7555,3.7612,3.7607,3.7748,3.7669,3.7668,3.7668,3.7668,0,3.5037,3.5204,3.5454,3.5585,3.5775,3.5941,3.6121,3.6253,3.6427,3.658,3.6692,3.6831,3.7011,3.7171,3.7281,3.7474,3.7521,3.759,3.7618,3.7583,3.7574,3.7652,3.7648,3.7673,3.7672,3.7671,3.767,0,3.5061,3.5235,3.5475,3.5734,3.5802,3.5931,3.6148,3.6276,3.6405,3.6598,3.6651,3.6852,3.7047,3.7204,3.7454,3.7529,3.7731,3.7761,3.7668,3.7683,3.7753,3.7745,3.7952,3.7987,3.788,3.788,3.7881,0,3.5133,3.5267,3.5542,3.5658,3.5783,3.5965,3.6095,3.626,3.6387,3.6624,3.6722,3.6926,3.7099,3.7402,3.7565,3.7757,3.7794,3.7853,3.7824,3.7784,3.7799,3.7791,3.7805,3.7857,3.7857,3.7858,3.7858,0,3.5243,3.5323,3.551,3.5726,3.5879,3.6054,3.6232,3.6317,3.6513,3.6649,3.6855,3.6989,3.7249,3.7449,3.7659,3.7777,3.7849,3.7866,3.7895,3.7861,3.7803,3.7839,3.7679,3.7861,3.7861,3.786,3.786,3.786,3.5296,3.5422,3.5637,3.584,3.5992,3.6156,3.629,3.6439,3.6616,3.6848,3.693,3.714,3.7331,3.7622,3.7742,3.7903,3.791,3.795,3.7961,3.7969,3.7967,3.7775,3.7941,3.7941,3.7941,3.7941,3.7941,0,3.5415,3.556,3.5745,3.5995,3.6153,3.6214,3.6413,3.6539,3.6726,3.6902,3.7072,3.7306,3.75,3.7679,3.788,3.7974,3.8012,3.8022,3.8018,3.8044,3.7948,3.7905,3.7988,3.7988,3.7988,3.7988,3.7988,3.7988,3.5496,3.5713,3.5817,3.6108,3.6249,3.6464,3.6572,3.6721,3.6864,3.7124,3.7289,3.7407,3.7583,3.7798,3.7977,3.8024,3.8093,3.8095,3.8149,3.8057,3.8051,3.8044,3.8005,3.8107,3.8108,3.8233,3.8234,3.8235]}]]